Cloud_Cover
100 100 100 100 43 5 0 0 0 0 6 9 17 36 64 40 92 92 68 40 0 0 2 0 4 36 51 94 92 16 71 49 29 6 0 0 0 4 7 0 0 8 0
100 100 100 98 90 95 5 5 12 2 30 78 90 94 69 90 55 4 1 0 0 0 0 0 0 0 0 0 0 49 91 42 37 2 0 0 0 0 17 0 0 0 2
99 100 100 100 15 100 65 8 43 37 18 24 25 31 1 0 0 0 0 0 0 0 0 0 0 0 0 0 0 0 0 0 0 0 0 67 97 0 30 1 0 0 0
91 100 100 100 100 100 96 58 85 100 61 13 5 5 0 0 0 0 0 0 0 0 0 0 0 0 0 0 0 0 0 0 0 0 0 60 42 0 0 3 0 1 0
38 77 100 100 100 100 100 100 100 100 21 5 2 5 9 2 0 0 0 0 0 0 0 0 0 0 0 0 0 0 0 0 0 0 0 1 1 8 0 6 2 0 0
70 42 96 100 100 100 91 98 97 100 99 5 74 100 100 97 5 6 3 2 0 0 0 0 0 0 0 0 0 0 0 0 0 0 0 0 0 0 14 4 18 0 0
70 71 77 94 100 100 100 100 98 6 5 5 5 88 100 100 87 97 4 5 1 0 0 0 0 0 0 0 0 0 0 0 0 0 3 8 2 0 9 22 21 16 8
100 81 62 23 78 100 100 100 100 56 10 14 5 49 100 10 5 5 5 5 0 0 0 0 0 0 0 0 0 0 0 0 0 31 52 4 64 26 87 16 14 17 19
100 100 99 64 36 95 100 100 96 95 100 22 94 100 100 5 5 5 5 5 3 0 0 0 0 2 5 0 4 0 0 0 4 63 34 79 52 86 58 72 12 26 21
100 85 100 86 53 25 36 100 100 10 100 100 100 100 92 5 5 5 5 5 5 4 5 0 2 0 5 5 0 0 0 0 0 25 15 98 42 95 94 8 1 1 85
100 89 100 99 72 20 5 82 100 100 25 100 100 100 100 75 5 5 7 5 5 5 0 0 0 0 0 0 0 0 0 0 0 0 5 0 0 1 2 3 2 3 13
100 100 100 98 56 97 28 36 100 18 66 100 100 97 64 7 5 5 69 39 5 5 5 0 0 0 0 0 0 0 0 0 0 0 19 4 55 29 82 28 50 34 98
100 100 100 95 83 68 39 8 21 84 41 98 100 82 65 11 4 5 5 5 27 5 5 5 0 0 0 0 0 0 0 0 0 0 6 58 92 88 100 100 98 99 87
98 100 100 69 72 19 5 69 5 80 40 40 100 100 89 5 6 35 5 5 43 84 16 5 0 0 0 0 0 0 0 0 0 1 5 0 0 72 96 100 100 100 28
90 97 88 83 90 68 82 92 54 44 92 85 88 100 84 25 98 81 63 22 5 5 5 5 5 0 3 5 0 0 0 1 2 3 2 0 0 0 1 0 0 0 0
100 97 96 94 100 100 71 75 98 51 76 64 76 100 91 83 39 65 64 62 34 28 11 6 5 4 0 2 3 5 7 5 5 5 3 0 0 0 0 0 0 1 0
100 100 100 100 100 100 98 87 58 57 63 99 43 72 97 53 25 48 40 14 7 7 42 28 5 5 5 14 95 100 60 5 5 5 0 0 0 0 0 0 0 0 0
100 100 100 100 100 100 100 96 68 100 88 67 10 27 35 19 69 100 100 100 100 95 49 6 32 7 5 5 5 26 6 20 5 1 4 1 2 1 0 0 0 5 5
100 96 100 100 100 100 100 99 99 100 6 65 29 5 5 0 0 0 6 72 75 68 84 76 41 15 25 8 9 25 5 6 7 5 5 1 4 4 4 5 5 1 0
100 100 100 100 100 100 84 98 100 89 55 6 14 5 5 4 0 0 0 0 1 4 4 18 8 5 5 5 5 5 35 17 5 5 5 4 0 0 0 0 0 0 0
100 100 100 100 100 100 54 21 14 64 76 72 71 62 58 16 5 5 5 0 0 0 0 0 0 0 3 5 5 25 24 38 5 5 5 5 4 1 0 0 0 0 0
100 100 100 100 100 100 89 88 63 60 72 100 85 61 51 9 6 5 5 4 2 0 3 0 0 5 4 1 4 15 9 28 5 5 5 5 5 5 5 5 2 0 0
100 100 100 100 100 100 100 100 100 100 100 100 95 71 64 89 85 20 8 21 22 5 4 5 3 1 4 4 5 30 81 88 94 63 12 5 5 5 5 2 0 0 0
61 100 100 100 100 100 100 100 100 100 100 100 100 100 96 95 93 88 98 15 20 46 8 5 5 4 5 5 5 5 5 6 6 10 61 5 5 5 5 1 0 0 0
48 86 100 100 100 100 100 100 100 100 100 100 100 100 100 100 100 100 100 100 75 26 16 61 43 56 78 57 69 87 10 5 5 5 5 5 5 3 0 0 0 0 0
100 99 100 100 100 100 100 100 100 100 100 100 100 100 100 100 100 100 100 100 44 30 98 52 92 75 100 100 100 99 90 37 5 5 5 4 1 5 0 0 0 0 0